Regional Weather Roundup
Issued by NWS Cleveland, OH

Home | Current Version | Previous Version | Graphics & Text | Print | Product List | Glossary On
Versions: 1 2 3 4 5 6 7 8 9 10 11 12 13 14 15 16 17 18 19 20 21 22 23 24 25 26 27 28 29 30 31 32 33 34 35 36 37 38 39 40 41 42 43 44 45 46 47 48 49 50
000
ASUS41 KCLE 200710
RWRCLE
OHIO REGIONAL WEATHER ROUNDUP
NATIONAL WEATHER SERVICE CLEVELAND, OH
300 AM EDT SUN APR 20 2014

NOTE: "FAIR" INDICATES FEW OR NO CLOUDS BELOW 12,000 FEET WITH NO
SIGNIFICANT WEATHER AND/OR OBSTRUCTIONS TO VISIBILITY.

OHZ001>008-015>018-024>027-034-035-043-044-200800-
   NORTHWEST OHIO

CITY           SKY/WX    TMP DP  RH WIND       PRES   REMARKS
DEFIANCE       PTCLDY    38  30  73 NE3       30.32S
FINDLAY        CLEAR     39  29  67 NE7       30.30S
TOLEDO EXPRESS PTCLDY    36  31  82 CALM      30.32S
TOLEDO EXEC    PTCLDY    41  32  70 NE6       30.33F
LIMA           CLEAR     39  31  72 NE6       30.29R
$$

OHZ009>014-019>023-028>033-038-089-200800-
   NORTHEAST OHIO

CITY           SKY/WX    TMP DP  RH WIND       PRES   REMARKS
CLE-HOPKINS    CLEAR     39  32  76 CALM      30.34S
CLE-LAKEFRONT  CLEAR     42  32  67 CALM      30.31S
CUY CO. ARPT   NOT AVBL
LORAIN-ELYRIA  CLEAR     37  31  78 CALM      30.31F
ASHTABULA      CLEAR     33  28  81 CALM      30.31F
AKRON-CANTON   PTCLDY    41  30  65 NE6       30.29F
WOOSTER        CLEAR     35  31  85 N3        30.30S
MANSFIELD      CLEAR     38  30  73 E7        30.28F
YOUNGSTOWN     PTCLDY    40  29  64 E8        30.29F
$$

OHZ042-051>053-060>062-070>072-077>081-200800-
  SOUTHWEST OHIO

CITY           SKY/WX    TMP DP  RH WIND       PRES   REMARKS
CINC-COVINGTON PTCLDY    52  34  50 NE8       30.23F
CINC-LUNKEN    CLEAR     42  40  92 CALM      30.25F
HAMILTON       CLEAR     42  37  82 CALM      30.26F
DAYTON         PTCLDY    44  32  62 NE5       30.26F
WRIGHT-PAT AFB CLEAR     45  33  64 N3        30.26F
DAYTON GENERAL CLEAR     43  34  70 NE8       30.24F
WILMINGTON     CLEAR     40  32  73 NE8       30.24F
$$

OHZ036-037-039>041-045>050-054>059-063>069-073>076-082>088-200800-
  CENTRAL AND SOUTHEAST OHIO

CITY           SKY/WX    TMP DP  RH WIND       PRES   REMARKS
COLUMBUS       PTCLDY    48  30  49 NE3       30.26F
OSU AIRPORT    CLEAR     42  31  64 NE6       30.26F
BOLTON FIELD   CLEAR     44  34  68 NE5       30.26F
RICKENBACK AFB CLEAR     47  31  53 N6        30.26S
NEWARK         PTCLDY    45  29  53 N3        30.26F
MARION         CLEAR     38  31  76 NE3       30.28F
LANCASTER      PTCLDY    42  33  70 N3        30.26F
ZANESVILLE     PTCLDY    44  27  51 N3        30.26F
NEW PHILLY     PTCLDY    41  29  62 CALM      30.29S
$$



USA.gov is the U.S. government's official web portal to all federal, state and local government web resources and services.